Location: Elaine Barite Prospect
(34.1431°N, 106.7922°W)
Time: 11:24:56
(UTC+00:00)

Meteor 2-20 - Pass Details

Date: 13 December 2025
Orbit: 937 x 959 km, 82.5° (Epoch: 14 January)

Event Time Altitude Azimuth Distance (km) Brightness Sun altitude
Exits shadow 12:18:59 - 351° (N) 3,370 7.1 -21.2°
Reaches altitude 10° 12:20:50 10° 350° (N) 2,665 6.6 -20.8°
Maximum altitude 12:26:55 78° 266° (W) 962 4.3 -19.6°
Drops below altitude 10° 12:32:56 10° 180° (S) 2,640 7.0 -18.4°
Sets 12:35:24 0° 179° (S) 3,580 7.7 -17.9°
